Location: Bédeille
(43.0872°N, 1.1041°E)
Time: 01:29:01
(UTC+00:00)

Cosmos 1844 - Pass Details

Date: 03 February 2023
Orbit: 822 x 868 km, 70.9° (Epoch: 27 March)

Event Time Altitude Azimuth Distance (km) Brightness Sun altitude
Rises 17:56:25 0° 340° (NNW) 3,463 7.0 -8.8°
Reaches altitude 10° 17:59:04 10° 348° (NNW) 2,521 6.2 -9.3°
Maximum altitude 18:04:31 40° 57° (ENE) 1,253 4.2 -10.3°
Drops below altitude 10° 18:09:54 10° 127° (SE) 2,493 5.8 -11.2°
Sets 18:12:29 0° 134° (SE) 3,420 6.5 -11.7°
